Location: Unspecified
(0.0000°N, 0.0000°E)
Time: 19:18:38
(UTC+00:00)

Hubble Space Telescope - Pass Details

Date: 01 June 2019
Orbit: 536 x 540 km, 28.5° (Epoch: 18 August)

Event Time Altitude Azimuth Distance (km) Brightness Sun altitude
Exits shadow 05:00:17 21° 233° (SW) 1,245 2.0 -13.3°
Maximum altitude 05:03:00 77° 150° (SSE) 550 0.8 -12.7°
Drops below altitude 10° 05:07:06 10° 64° (ENE) 1,777 5.0 -11.7°
Sets 05:09:22 0° 62° (ENE) 2,667 6.5 -11.2°
